GW5875 Weather Reports


time (UTC)temp
F
wind
direction
speed
knots
gust
knots
rain 1hr
in
rain 24hr
in
rain mn
in
humidity
%
barometer
mb
20260505064102 65 142 0.9 0.9 0.00 0.00 0.00 70 1007.0
20260505063558 65 145 1.7 2.6 0.00 0.00 0.00 70 1007.2
20260505063054 65 81 1.7 2.6 0.00 0.00 0.00 70 1007.3
20260505062551 65 144 1.7 2.6 0.00 0.00 0.00 69 1007.2
20260505062048 65 129 1.7 2.6 0.00 0.00 0.00 68 1007.4
20260505061546 65 119 0.9 0.9 0.00 0.00 0.00 69 1007.3
20260505061043 65 151 0.9 0.9 0.00 0.00 0.00 69 1007.4
20260505060541 65 121 0.9 0.9 0.00 0.00 0.00 69 1007.6
20260505060037 64 134 0.9 0.9 0.00 0.00 0.00 69 1008.0
20260505055532 64 127 0.9 0.9 0.00 0.00 0.00 70 1007.7
20260505055030 65 135 0.9 0.9 0.00 0.00 0.00 68 1007.8
20260505054527 65 141 0.0 0.9 0.00 0.00 0.00 68 1007.8
20260505054025 65 111 2.6 2.6 0.00 0.00 0.00 68 1007.7
20260505053522 65 119 1.7 2.6 0.00 0.00 0.00 68 1007.9
20260505053018 65 143 0.0 0.9 0.00 0.00 0.00 68 1007.5
20260505052516 65 135 0.9 0.9 0.00 0.00 0.00 67 1007.8
20260505052013 65 141 0.9 0.9 0.00 0.00 0.00 67 1007.7
20260505051509 66 117 1.7 2.6 0.00 0.00 0.00 67 1007.8
20260505051008 66 146 0.0 0.0 0.00 0.00 0.00 67 1007.6
20260505050506 66 77 1.7 2.6 0.00 0.00 0.00 67 1007.6
20260505041433 65 129 0.9 0.9 0.00 0.00 0.00 69 1008.1
20260505040931 65 130 0.9 0.9 0.00 0.00 0.00 69 1008.2
20260505040428 66 138 0.9 0.9 0.00 0.00 0.00 69 1008.2
20260505035924 66 136 0.0 0.0 0.00 0.00 0.00 68 1008.1
20260505035420 66 145 0.0 0.0 0.00 0.00 0.00 68 1008.4
20260505034918 66 138 0.9 0.9 0.00 0.00 0.00 67 1008.2
20260505034414 66 147 0.0 0.9 0.00 0.00 0.00 67 1008.3
20260505033912 66 107 1.7 2.6 0.00 0.00 0.00 67 1008.3
20260505033408 67 134 0.0 0.0 0.00 0.00 0.00 67 1008.2
20260505032907 67 140 0.0 0.0 0.00 0.00 0.00 66 1008.4
20260505032403 67 133 0.9 0.9 0.00 0.00 0.00 66 1008.5
20260505031859 67 147 0.0 0.0 0.00 0.00 0.00 66 1008.3
20260505031356 67 151 0.0 0.0 0.00 0.00 0.00 66 1008.2
20260505030854 67 136 0.9 0.9 0.00 0.00 0.00 65 1008.2
20260505030349 67 145 0.0 0.0 0.00 0.00 0.00 66 1008.1
20260505025845 68 145 0.0 0.0 0.00 0.00 0.00 65 1007.8
20260505025343 68 141 0.0 0.0 0.00 0.00 0.00 65 1008.0
20260505024841 68 135 0.9 0.9 0.00 0.00 0.00 65 1007.7
20260505024339 68 144 0.0 0.9 0.00 0.00 0.00 65 1007.9
20260505023835 68 133 0.0 0.0 0.00 0.00 0.00 65 1007.8
20260505023332 68 124 0.9 0.9 0.00 0.00 0.00 65 1007.8
20260505022830 68 144 0.9 0.9 0.00 0.00 0.00 64 1007.8
20260505022326 68 138 0.0 0.9 0.00 0.00 0.00 63 1007.5
20260505021824 69 140 0.9 0.9 0.00 0.00 0.00 64 1007.4
20260505021320 69 132 0.9 0.9 0.00 0.00 0.00 63 1007.4
20260505020816 69 140 0.9 0.9 0.00 0.00 0.00 62 1007.5
20260505020312 69 139 1.7 2.6 0.00 0.00 0.00 62 1007.2
20260505015809 69 134 0.9 0.9 0.00 0.00 0.00 63 1007.7
20260505015306 69 140 0.0 0.0 0.00 0.00 0.00 63 1007.5
20260505014803 69 137 0.0 0.9 0.00 0.00 0.00 63 1007.3
20260505014300 69 141 0.0 0.0 0.00 0.00 0.00 63 1007.1
20260505013757 69 136 0.0 0.0 0.00 0.00 0.00 62 1007.2
20260505013254 69 143 0.0 0.0 0.00 0.00 0.00 62 1007.2
20260505012752 70 141 0.0 0.9 0.00 0.00 0.00 61 1007.3
20260505012250 70 136 0.9 0.9 0.00 0.00 0.00 60 1007.2
20260505011745 71 141 0.0 0.9 0.00 0.00 0.00 58 1007.1
20260505011242 71 132 1.7 2.6 0.00 0.00 0.00 58 1007.4
20260505010738 71 136 0.9 0.9 0.00 0.00 0.00 59 1007.3
20260505010234 71 138 0.0 0.9 0.00 0.00 0.00 57 1007.1
20260505005731 71 139 0.9 0.9 0.00 0.00 0.00 57 1007.0
20260505005228 72 144 0.0 0.9 0.00 0.00 0.00 56 1007.3
20260505004725 73 149 0.0 0.0 0.00 0.00 0.00 56 1007.0
20260505004221 73 152 0.0 0.0 0.00 0.00 0.00 56 1007.2
20260505003719 73 149 0.0 0.0 0.00 0.00 0.00 55 1006.8
20260505003217 73 149 0.0 0.0 0.00 0.00 0.00 54 1006.9
20260505002712 73 150 0.0 0.0 0.00 0.00 0.00 54 1007.0
20260505002210 74 146 0.0 0.0 0.00 0.00 0.00 53 1007.0
20260505001707 74 151 0.0 0.0 0.00 0.00 0.00 53 1007.2
20260505001205 74 147 0.0 0.0 0.00 0.00 0.00 52 1007.1
20260505000702 75 148 1.7 2.6 0.00 0.00 0.00 52 1006.9
20260505000200 75 183 3.5 4.3 0.00 0.00 0.00 52 1007.0
20260504235656 75 155 0.0 0.0 0.00 0.00 0.00 54 1007.1
20260504235152 75 153 0.0 0.0 0.00 0.00 0.00 54 1007.2
20260504234650 75 152 0.0 0.9 0.00 0.00 0.00 52 1007.4
20260504234147 76 130 0.9 0.9 0.00 0.00 0.00 51 1007.5
20260504233642 76 138 0.9 0.9 0.00 0.00 0.00 51 1007.4
20260504233138 76 86 1.7 2.6 0.00 0.00 0.00 50 1007.4
20260504232637 77 153 0.0 0.9 0.00 0.00 0.00 51 1007.7
20260504232133 77 153 0.0 0.0 0.00 0.00 0.00 50 1007.5
20260504231630 77 145 1.7 2.6 0.00 0.00 0.00 50 1007.6
20260504231126 77 1 1.7 2.6 0.00 0.00 0.00 48 1007.6
20260504230622 77 190 2.6 3.5 0.00 0.00 0.00 48 1007.6
20260504230121 77 274 4.3 5.2 0.00 0.00 0.00 46 1007.8
20260504225619 77 164 1.7 3.5 0.00 0.00 0.00 49 1007.7
20260504225115 78 192 1.7 2.6 0.00 0.00 0.00 47 1007.6
20260504224612 78 154 3.5 5.2 0.00 0.00 0.00 47 1007.9
20260504224109 78 184 2.6 3.5 0.00 0.00 0.00 48 1007.9
20260504223606 79 188 4.3 5.2 0.00 0.00 0.00 47 1007.8
20260504223101 79 195 4.3 5.2 0.00 0.00 0.00 45 1008.0
20260504222559 80 196 1.7 2.6 0.00 0.00 0.00 46 1007.9
20260504222056 80 184 0.9 0.9 0.00 0.00 0.00 47 1008.1
20260504221553 79 110 3.5 7.0 0.00 0.00 0.00 45 1008.0
20260504221049 80 198 3.5 5.2 0.00 0.00 0.00 44 1008.0
20260504220546 80 146 1.7 2.6 0.00 0.00 0.00 46 1007.9
20260504220043 81 206 3.5 5.2 0.00 0.00 0.00 44 1007.8
20260504215539 80 153 1.7 2.6 0.00 0.00 0.00 45 1008.2
20260504215037 81 256 3.5 3.5 0.00 0.00 0.00 45 1007.9
20260504214533 80 141 2.6 3.5 0.00 0.00 0.00 45 1008.1
20260504214030 78 201 1.7 2.6 0.00 0.00 0.00 52 1007.9
20260504213526 78 210 1.7 3.5 0.00 0.00 0.00 46 1008.4
20260504213023 80 214 6.1 7.0 0.00 0.00 0.00 44 1008.2
20260504212519 80 182 3.5 4.3 0.00 0.00 0.00 45 1008.3
20260504212017 80 188 5.2 7.8 0.00 0.00 0.00 45 1008.4
20260504211513 80 229 3.5 7.0 0.00 0.00 0.00 44 1008.4
20260504211011 80 243 4.3 7.0 0.00 0.00 0.00 47 1008.2
20260504210508 80 248 8.7 9.6 0.00 0.00 0.00 42 1008.4
20260504210004 81 267 4.3 5.2 0.00 0.00 0.00 46 1008.5
20260504205502 81 164 2.6 3.5 0.00 0.00 0.00 44 1008.6
20260504205000 80 151 4.3 5.2 0.00 0.00 0.00 46 1008.6
20260504204458 80 222 5.2 7.8 0.00 0.00 0.00 45 1008.9
20260504203957 80 239 2.6 3.5 0.00 0.00 0.00 44 1008.9
20260504203454 79 133 2.6 4.3 0.00 0.00 0.00 45 1008.8
20260504202950 80 169 5.2 5.2 0.00 0.00 0.00 43 1009.1
20260504202446 80 243 3.5 5.2 0.00 0.00 0.00 47 1009.2
20260504201943 80 193 3.5 5.2 0.00 0.00 0.00 44 1009.3
20260504201441 80 212 0.9 3.5 0.00 0.00 0.00 48 1009.2
20260504200938 79 195 7.8 10.4 0.00 0.00 0.00 43 1009.3
20260504200435 79 211 1.7 2.6 0.00 0.00 0.00 46 1009.3
20260504195931 80 244 5.2 7.8 0.00 0.00 0.00 43 1009.5
20260504195427 80 160 2.6 4.3 0.00 0.00 0.00 46 1009.5
20260504194924 79 208 7.0 9.6 0.00 0.00 0.00 42 1009.6
20260504194420 80 208 5.2 10.4 0.00 0.00 0.00 42 1009.8
20260504193916 80 227 4.3 5.2 0.00 0.00 0.00 46 1009.9
20260504193414 80 216 7.0 10.4 0.00 0.00 0.00 43 1010.2
20260504192912 79 180 5.2 5.2 0.00 0.00 0.00 44 1009.9
20260504192409 79 152 5.2 9.6 0.00 0.00 0.00 43 1010.2
20260504191908 79 207 8.7 13.0 0.00 0.00 0.00 43 1010.1
20260504191405 79 255 4.3 5.2 0.00 0.00 0.00 43 1010.2
20260504190900 80 117 4.3 7.0 0.00 0.00 0.00 44 1010.3
20260504190356 79 171 3.5 4.3 0.00 0.00 0.00 44 1010.2
20260504185853 79 239 4.3 4.3 0.00 0.00 0.00 42 1010.6
20260504185350 78 203 5.2 7.8 0.00 0.00 0.00 44 1010.3
20260504184846 78 89 3.5 5.2 0.00 0.00 0.00 43 1010.6
20260504184342 78 220 5.2 7.0 0.00 0.00 0.00 45 1010.8
20260504183838 78 247 5.2 7.0 0.00 0.00 0.00 45 1010.7
20260504183336 78 207 3.5 4.3 0.00 0.00 0.00 46 1010.9
20260504182833 78 206 7.0 11.3 0.00 0.00 0.00 44 1010.9
20260504182331 78 207 5.2 7.8 0.00 0.00 0.00 44 1010.9
20260504181827 78 161 2.6 4.3 0.00 0.00 0.00 43 1010.4
20260504181325 79 146 4.3 5.2 0.00 0.00 0.00 44 1010.7
20260504180824 78 137 1.7 3.5 0.00 0.00 0.00 47 1010.6
20260504180322 78 222 6.1 7.8 0.00 0.00 0.00 44 1010.9
20260504175820 77 232 1.7 3.5 0.00 0.00 0.00 49 1011.0
20260504175316 77 207 6.1 7.8 0.00 0.00 0.00 44 1011.1
20260504174815 78 194 7.0 7.8 0.00 0.00 0.00 43 1011.2
20260504174311 77 194 4.3 5.2 0.00 0.00 0.00 45 1011.3
20260504173808 77 219 7.0 9.6 0.00 0.00 0.00 44 1011.5
20260504173305 77 235 3.5 5.2 0.00 0.00 0.00 44 1011.7
20260504172802 76 164 2.6 4.3 0.00 0.00 0.00 45 1011.8
20260504172259 76 250 10.4 13.9 0.00 0.00 0.00 43 1011.9
20260504171754 77 241 7.8 13.0 0.00 0.00 0.00 44 1012.0
20260504171252 77 192 8.7 10.4 0.00 0.00 0.00 44 1011.7
20260504170749 77 193 3.5 4.3 0.00 0.00 0.00 45 1011.7
20260504170246 76 242 10.4 13.9 0.00 0.00 0.00 45 1011.9
20260504160204 74 246 3.5 4.3 0.00 0.00 0.00 51 1012.5
20260504151132 72 263 10.4 13.9 0.00 0.00 0.00 51 1012.7
20260504150630 73 193 7.0 9.6 0.00 0.00 0.00 53 1012.6
20260504150126 72 255 7.8 11.3 0.00 0.00 0.00 53 1012.6
20260504141055 69 216 2.6 3.5 0.00 0.00 0.00 62 1012.9
20260504140551 69 169 1.7 2.6 0.00 0.00 0.00 62 1013.0
20260504130516 65 194 2.6 3.5 0.00 0.00 0.00 68 1013.0
20260504110403 52 132 0.0 0.0 0.00 0.00 0.00 95 1012.0
20260504100320 53 131 0.0 0.0 0.00 0.00 0.00 93 1012.4
20260504081714 56 143 0.0 0.0 0.00 0.00 0.00 88 1012.5
20260504081210 57 138 0.0 0.0 0.00 0.00 0.00 86 1012.6
20260504080706 58 152 0.0 0.0 0.00 0.00 0.00 84 1012.6
20260504080203 57 161 0.0 0.0 0.00 0.00 0.00 86 1012.6
20260504070131 57 144 0.0 0.0 0.00 0.00 0.00 87 1013.0